EN

Hourly Weather Laguna de Apoyo

Today, 3 August, Tuesday

Time Temperature Precipitation Wind Pressure Humidity
00:00 +25°C° 0.2 mm 2 mps 735 mmHg 89%
01:00 +25°C° 0.5 mm 2 mps 735 mmHg 90%
02:00 +25°C° 0.5 mm 2 mps 735 mmHg 91%
03:00 +25°C° 0.5 mm 1 mps 734 mmHg 92%
04:00 +25°C° 0.3 mm 1 mps 735 mmHg 91%
05:00 +25°C° 0.3 mm 1 mps 735 mmHg 91%
06:00 +25°C° 0.3 mm 1 mps 735 mmHg 90%
07:00 +26°C° 0.9 mm 1 mps 736 mmHg 85%
08:00 +27°C° 0.9 mm 1 mps 736 mmHg 80%
09:00 +28°C° 0.9 mm 2 mps 736 mmHg 75%
10:00 +29°C° 1.1 mm 2 mps 736 mmHg 74%
11:00 +29°C° 1.1 mm 2 mps 736 mmHg 73%
12:00 +30°C° 1.1 mm 2 mps 736 mmHg 72%
13:00 +29°C° 0.7 mm 2 mps 735 mmHg 72%
14:00 +29°C° 0.7 mm 2 mps 735 mmHg 72%
15:00 +29°C° 0.7 mm 2 mps 734 mmHg 73%
16:00 +28°C° 2 mm 2 mps 734 mmHg 80%
17:00 +26°C° 2 mm 2 mps 735 mmHg 88%
18:00 +24°C° 2 mm 3 mps 735 mmHg 95%
19:00 +24°C° 1.1 mm 2 mps 736 mmHg 95%
20:00 +24°C° 1.1 mm 1 mps 736 mmHg 95%
21:00 +24°C° 1.1 mm 1 mps 736 mmHg 95%
22:00 +24°C° 0 mm 1 mps 736 mmHg 94%
23:00 +24°C° 0 mm 1 mps 736 mmHg 94%

Tomorrow, 4 August, Wednesday

Time Temperature Precipitation Wind Pressure Humidity
00:00 +24°C° 0 mm 1 mps 736 mmHg 93%
01:00 +24°C° 0 mm 1 mps 735 mmHg 93%
02:00 +24°C° 0 mm 1 mps 735 mmHg 94%
03:00 +24°C° 0 mm 2 mps 734 mmHg 95%
04:00 +24°C° 0 mm 1 mps 735 mmHg 95%
05:00 +24°C° 0 mm 1 mps 735 mmHg 95%
06:00 +24°C° 0 mm 1 mps 735 mmHg 95%
07:00 +25°C° 0 mm 1 mps 735 mmHg 89%
08:00 +26°C° 0 mm 1 mps 736 mmHg 83%
09:00 +27°C° 0 mm 1 mps 736 mmHg 78%
10:00 +28°C° 0 mm 2 mps 736 mmHg 73%
11:00 +29°C° 0 mm 2 mps 736 mmHg 69%
12:00 +30°C° 0 mm 2 mps 736 mmHg 65%
13:00 +30°C° 0.2 mm 2 mps 735 mmHg 67%
14:00 +30°C° 0.2 mm 3 mps 735 mmHg 69%
15:00 +30°C° 0.2 mm 3 mps 734 mmHg 71%
16:00 +29°C° 0.5 mm 3 mps 734 mmHg 76%
17:00 +27°C° 0.5 mm 3 mps 735 mmHg 82%
18:00 +26°C° 0.5 mm 2 mps 735 mmHg 87%
19:00 +26°C° 2 mm 2 mps 735 mmHg 89%
20:00 +25°C° 2 mm 2 mps 736 mmHg 91%
21:00 +25°C° 2 mm 2 mps 737 mmHg 93%
22:00 +25°C° 0.7 mm 2 mps 736 mmHg 93%
23:00 +25°C° 0.7 mm 1 mps 736 mmHg 93%

Day after tomorrow, 5 August, Thursday

Time Temperature Precipitation Wind Pressure Humidity
00:00 +25°C° 0.7 mm 1 mps 736 mmHg 94%
01:00 +25°C° 0 mm 1 mps 736 mmHg 94%
02:00 +24°C° 0 mm 1 mps 736 mmHg 94%
03:00 +24°C° 0 mm 1 mps 735 mmHg 94%
04:00 +24°C° 0 mm 1 mps 735 mmHg 94%
05:00 +24°C° 0 mm 1 mps 736 mmHg 93%
06:00 +24°C° 0 mm 1 mps 736 mmHg 93%
07:00 +26°C° 0.1 mm 1 mps 736 mmHg 86%
08:00 +27°C° 0.1 mm 2 mps 737 mmHg 78%
09:00 +29°C° 0.1 mm 2 mps 737 mmHg 71%
10:00 +29°C° 0.4 mm 2 mps 737 mmHg 68%
11:00 +30°C° 0.4 mm 3 mps 737 mmHg 64%
12:00 +31°C° 0.4 mm 3 mps 736 mmHg 61%
13:00 +31°C° 0.1 mm 3 mps 736 mmHg 61%
14:00 +31°C° 0.1 mm 3 mps 735 mmHg 61%
15:00 +31°C° 0.1 mm 3 mps 735 mmHg 61%
16:00 +29°C° 0.7 mm 3 mps 735 mmHg 69%
17:00 +28°C° 0.7 mm 3 mps 735 mmHg 77%
18:00 +26°C° 0.7 mm 3 mps 735 mmHg 85%
19:00 +26°C° 1.2 mm 3 mps 736 mmHg 87%
20:00 +26°C° 1.2 mm 2 mps 736 mmHg 89%
21:00 +25°C° 1.2 mm 2 mps 737 mmHg 91%
22:00 +25°C° 0 mm 2 mps 737 mmHg 91%
23:00 +25°C° 0 mm 2 mps 736 mmHg 91%

6 August, Friday

Time Temperature Precipitation Wind Pressure Humidity
00:00 +24°C° 0 mm 1 mps 736 mmHg 91%
01:00 +24°C° 0 mm 1 mps 736 mmHg 91%
02:00 +24°C° 0 mm 1 mps 736 mmHg 91%
03:00 +24°C° 0 mm 1 mps 736 mmHg 91%
04:00 +24°C° 0 mm 1 mps 736 mmHg 90%
05:00 +24°C° 0 mm 1 mps 736 mmHg 90%
06:00 +24°C° 0 mm 1 mps 736 mmHg 90%
07:00 +26°C° 0 mm 1 mps 736 mmHg 82%
08:00 +27°C° 0 mm 1 mps 737 mmHg 73%
09:00 +29°C° 0 mm 2 mps 737 mmHg 65%
10:00 +30°C° 0 mm 2 mps 737 mmHg 62%
11:00 +31°C° 0 mm 2 mps 736 mmHg 58%
12:00 +33°C° 0 mm 3 mps 736 mmHg 55%
13:00 +33°C° 0.5 mm 3 mps 735 mmHg 58%
14:00 +31°C° 0.5 mm 3 mps 735 mmHg 62%
15:00 +31°C° 0.5 mm 3 mps 734 mmHg 66%
16:00 +29°C° 1.8 mm 4 mps 735 mmHg 74%
17:00 +27°C° 1.8 mm 4 mps 735 mmHg 83%
18:00 +25°C° 1.8 mm 4 mps 736 mmHg 92%
19:00 +25°C° 0.3 mm 4 mps 736 mmHg 92%
20:00 +25°C° 0.3 mm 3 mps 736 mmHg 93%
21:00 +24°C° 0.3 mm 3 mps 736 mmHg 94%
22:00 +24°C° 0.2 mm 3 mps 736 mmHg 94%
23:00 +24°C° 0.2 mm 2 mps 736 mmHg 94%

7 August, Saturday

Time Temperature Precipitation Wind Pressure Humidity
00:00 +24°C° 0.2 mm 2 mps 736 mmHg 94%
01:00 +24°C° 0.2 mm 2 mps 736 mmHg 94%
02:00 +24°C° 0.2 mm 2 mps 736 mmHg 94%
03:00 +24°C° 0.2 mm 1 mps 735 mmHg 95%
04:00 +24°C° 0 mm 1 mps 735 mmHg 94%
05:00 +24°C° 0 mm 1 mps 735 mmHg 94%
06:00 +24°C° 0 mm 1 mps 735 mmHg 94%
07:00 +25°C° 0 mm 2 mps 736 mmHg 86%
08:00 +27°C° 0 mm 2 mps 736 mmHg 78%
09:00 +29°C° 0 mm 3 mps 737 mmHg 70%
10:00 +29°C° 1 mm 3 mps 736 mmHg 73%
11:00 +29°C° 1 mm 4 mps 736 mmHg 76%
12:00 +29°C° 1 mm 4 mps 736 mmHg 79%
13:00 +29°C° 1.5 mm 5 mps 736 mmHg 81%
14:00 +28°C° 1.5 mm 5 mps 735 mmHg 83%
15:00 +28°C° 1.5 mm 5 mps 735 mmHg 85%
16:00 +27°C° 0.3 mm 5 mps 735 mmHg 86%
17:00 +26°C° 0.3 mm 4 mps 735 mmHg 87%
18:00 +25°C° 0.3 mm 4 mps 735 mmHg 89%
19:00 +25°C° 0 mm 3 mps 736 mmHg 88%
20:00 +25°C° 0 mm 3 mps 736 mmHg 88%
21:00 +24°C° 0 mm 2 mps 736 mmHg 88%
22:00 +24°C° 0 mm 2 mps 736 mmHg 89%
23:00 +24°C° 0 mm 2 mps 736 mmHg 89%

8 August, Sunday

Time Temperature Precipitation Wind Pressure Humidity
00:00 +24°C° 0 mm 2 mps 736 mmHg 89%
01:00 +24°C° 0 mm 2 mps 736 mmHg 91%
02:00 +24°C° 0 mm 1 mps 735 mmHg 92%
03:00 +24°C° 0 mm 1 mps 735 mmHg 94%
04:00 +24°C° 0.1 mm 1 mps 735 mmHg 93%
05:00 +24°C° 0.1 mm 1 mps 735 mmHg 93%
06:00 +24°C° 0.1 mm 1 mps 735 mmHg 92%
07:00 +25°C° 0 mm 1 mps 736 mmHg 84%
08:00 +27°C° 0 mm 2 mps 736 mmHg 75%
09:00 +29°C° 0 mm 3 mps 737 mmHg 67%
10:00 +30°C° 0.1 mm 3 mps 737 mmHg 65%
11:00 +30°C° 0.1 mm 3 mps 736 mmHg 64%
12:00 +31°C° 0.1 mm 3 mps 736 mmHg 62%
13:00 +31°C° 0.7 mm 3 mps 736 mmHg 64%
14:00 +32°C° 0.7 mm 4 mps 735 mmHg 66%
15:00 +32°C° 0.7 mm 4 mps 735 mmHg 68%
16:00 +29°C° 1.3 mm 3 mps 735 mmHg 75%
17:00 +27°C° 1.3 mm 3 mps 735 mmHg 82%
18:00 +26°C° 1.3 mm 3 mps 735 mmHg 88%
19:00 +26°C° 0.1 mm 3 mps 736 mmHg 89%
20:00 +26°C° 0.1 mm 3 mps 736 mmHg 90%
21:00 +25°C° 0.1 mm 3 mps 737 mmHg 91%
22:00 +25°C° 0 mm 3 mps 736 mmHg 91%
23:00 +25°C° 0 mm 3 mps 736 mmHg 91%
Show more